Location: Unspecified
(41.5000°N, 0.0000°E)
Time: 08:06:19
(UTC+00:00)

Vanguard 2 - Pass Details

Date: 20 June 2019
Orbit: 553 x 2938 km, 32.9° (Epoch: 22 July)

Event Time Altitude Azimuth Distance (km) Brightness Sun altitude
Rises 13:37:33 0° 271° (W) 4,660 11.8 63.0°
Reaches altitude 10° 13:40:31 10° 263° (W) 3,975 11.7 62.6°
Maximum altitude 13:50:30 38° 201° (SSW) 3,129 11.8 61.0°
Drops below altitude 10° 14:04:42 10° 142° (SE) 5,608 12.0 58.6°
Sets 14:09:53 0° 135° (SE) 6,749 12.2 57.8°
